Location: Caltech
(34.1382°N, 118.1253°W)
Time: 13:07:39
(UTC-07:00)

Cosmos 1125 Rocket - Visible Passes

Search period start: 29 August 2014 00:00
Search period end: 08 September 2014 00:00
Orbit: 759 x 781 km, 74.0° (Epoch: 28 August)

Date Brightness Start Highest point End Pass type
(mag) Time Alt. Az. Time Alt. Az. Time Alt. Az.
29 Aug 6.3 03:57:48 10° ESE 03:59:49 12° E 04:01:49 10° ENE visible
29 Aug 3.6 05:36:02 10° SSW 05:41:16 63° WNW 05:46:30 10° N visible
30 Aug 3.7 04:59:37 10° S 05:04:53 74° ESE 05:10:09 10° NNE visible
31 Aug 4.6 04:24:51 17° SSE 04:28:35 41° ESE 04:33:30 10° NNE visible
01 Sep 5.5 03:49:59 17° SE 03:52:22 23° E 03:56:27 10° NE visible
01 Sep 4.2 05:30:21 15° SW 05:34:12 34° WNW 05:39:00 10° N visible
02 Sep 6.1 03:15:02 12° ESE 03:16:15 13° E 03:18:25 10° ENE visible
02 Sep 3.5 04:55:23 32° SW 04:57:43 61° WNW 05:02:56 10° N visible
03 Sep 3.5 04:20:20 58° S 04:21:19 76° ESE 04:26:36 10° NNE visible
03 Sep 5.4 06:02:18 10° WNW 06:04:00 11° WNW 06:05:42 10° NW visible
04 Sep 4.5 03:45:13 42° E 03:45:13 42° E 03:49:58 10° NNE visible
04 Sep 4.9 05:25:34 17° W 05:27:16 20° WNW 05:31:05 10° NNW visible
05 Sep 5.6 03:10:02 22° ENE 03:10:02 22° ENE 03:12:56 10° NE visible
05 Sep 4.2 04:50:23 33° WNW 04:50:40 34° WNW 04:55:25 10° N visible
06 Sep 6.4 02:34:48 10° ENE 02:34:48 10° ENE 02:34:59 10° ENE visible
06 Sep 3.9 04:15:08 50° NNW 04:15:08 50° NNW 04:19:22 10° N visible
07 Sep 4.7 03:39:50 38° NNE 03:39:50 38° NNE 03:43:02 10° NNE visible
07 Sep 5.5 05:20:10 11° WNW 05:20:27 11° WNW 05:21:55 10° NW visible
